SCP
0 0 0 0 0 0 0 0 0 0 0 0 0 0 0 0 0 0 0 0 0 0 0 0 0 0 0 0 0 0 0 0 0 0 0 0 0 0 0 0 0 0 0
0 0 0 0 0 0 0 0 0 0 0 0 0 0 0 0 0 0 0 0 0 0 0 0 0 0 0 0 0 0 0 0 0 0 0 0 0 0 0 0 0 0 0
0 0 0 0 0 0 0 0 0 0 0 0 0 0 0 0 0 0 0 0 0 0 0 0 0 0 0 0 0 0 0 0 0 0 0 0 0 0 0 0 0 0 0
0 0 0 0 0 0 0 0 0 0 0 0 0 0 0 0 0 0 0 0 0 0 0 0 0 0 0 0 0 0 0 0 0 0 0 0 0 0 0 0 0 0 0
0 0 0 0 0 0 0 0 0 0 0 0 0 0 0 0 0 0 0 0 0 0 0 0 0 0 0 0 0 0 0 0 0 0 0 0 0 0 0 0 0 0 0
0 0 0 0 0 0 0 0 0 0 0 0 0 0 0 0 0 0 0 0 0 0 0 0 0 0 0 0 0 0 0 0 0 0 0 0 0 0 0 0 0 0 0
0 0 0 0 0 0 0 0 0 0 0 0 0 0 0 0 0 0 0 0 0 0 0 0 0 0 0 0 0 0 0 0 0 0 0 0 0 0 0 0 0 0 0
0 0 0 0 0 0 0 0 0 0 0 0 0 0 0 0 0 0 0 0 0 0 0 0 0 0 0 0 0 0 0 0 0 0 0 0 0 0 0 0 0 0 0
0 0 0 0 0 0 0 0 0 0 0 0 0 0 0 0 0 0 0 0 0 0 0 0 0 0 0 0 0 0 0 0 0 0 0 0 0 0 0 0 0 0 0
0 0 0 0 0 0 0 0 0 0 0 0 0 0 0 0 0 0 0 0 0 0 0 0 0 0 0 0 0 0 0 0 0 0 0 0 0 0 0 0 0 0 0
0 0 0 0 0 0 0 0 0 0 0 0 0 0 0 0 0 0 0 0 0 0 0 0 0 0 0 0 0 0 0 0 0 0 0 0 0 0 0 0 0 0 0
0 0 0 0 0 0 0 0 0 0 0 0 0 0 0 0 0 0 0 0 0 0 0 0 0 0 0 0 0 0 0 0 0 0 0 0 0 0 0 0 0 0 0
0 0 0 0 0 0 0 0 0 0 0 0 0 0 0 0 0 0 0 0 0 0 0 0 0 0 0 0 0 0 0 0 0 0 0 0 0 0 0 0 0 0 0
0 0 0 0 0 0 0 0 0 0 0 0 0 0 0 0 0 0 0 0 0 0 0 0 0 0 0 0 0 0 0 0 0 0 0 0 0 0 0 0 0 0 0
0 0 0 0 0 0 0 0 0 0 0 0 0 0 0 0 0 0 0 0 0 0 0 0 0 0 0 0 0 0 0 0 0 0 0 0 0 0 0 0 0 0 0
0 0 0 0 0 0 0 1 1 1 1 1 0 0 0 0 0 0 0 0 0 0 0 0 0 0 0 0 0 0 0 0 0 0 0 0 0 0 0 0 0 0 0
0 0 0 0 0 0 0 1 1 1 1 1 0 0 0 0 0 0 0 0 0 0 0 0 0 0 0 0 0 0 0 0 0 0 0 0 0 0 0 0 0 0 0
0 0 0 0 0 0 0 0 0 0 0 0 0 0 0 0 1 1 0 0 0 0 0 0 0 0 0 0 0 0 0 0 0 0 0 0 0 0 0 0 0 0 0
0 0 0 0 0 0 0 0 0 0 0 0 0 0 0 0 1 1 0 0 0 0 0 0 0 0 0 0 0 0 0 0 0 0 0 0 0 0 0 0 0 0 0
0 0 0 0 0 0 0 0 0 0 0 0 0 0 0 0 0 0 0 0 0 0 0 0 0 0 0 0 0 0 0 0 0 0 0 0 0 0 0 0 0 0 0
1 1 1 0 0 0 0 0 0 0 0 0 0 0 0 0 0 0 0 0 0 0 0 0 0 0 0 0 0 0 0 0 0 0 0 0 0 0 0 0 0 0 0
1 1 1 1 1 0 0 0 0 0 0 0 0 0 0 0 0 0 0 0 0 0 0 0 0 0 0 0 0 0 0 0 0 0 0 0 0 0 0 0 0 0 0
1 1 1 1 1 0 0 0 0 0 0 0 0 0 0 0 0 0 0 0 0 0 0 0 0 0 0 0 0 0 1 0 0 1 1 0 0 0 0 0 0 0 0
1 1 1 1 0 0 0 0 0 0 0 0 0 0 0 0 0 0 0 0 0 0 0 0 0 0 0 0 0 1 1 1 0 1 1 0 0 0 0 0 0 0 0
1 1 1 1 0 0 0 0 0 0 0 0 0 0 0 0 0 0 0 0 0 0 0 0 0 0 0 0 0 0 0 0 0 0 1 0 0 0 0 0 0 0 0
1 1 1 1 0 0 0 0 0 0 0 0 0 0 0 0 0 0 0 0 0 0 0 0 0 0 0 0 0 0 0 0 0 0 1 1 0 0 0 0 0 0 0
Wind_Speed
4 4 3 2 3 4 4 3 3 4 3 3 3 3 3 4 3 3 6 8 7 7 7 7 8 8 8 8 8 8 8 8 8 8 8 8 8 8 7 7 7 6 6
3 3 3 2 2 2 3 2 4 3 2 3 3 3 2 3 3 2 5 8 7 6 6 7 8 8 8 8 8 8 8 8 8 8 7 7 7 7 7 7 7 6 6
4 3 3 2 2 3 3 2 3 2 2 3 3 3 2 2 3 3 3 4 7 8 7 7 7 7 8 8 8 8 8 8 7 8 8 7 7 7 7 7 7 6 6
4 3 2 2 2 2 2 2 1 2 2 1 1 1 2 2 3 3 4 3 3 5 9 9 7 7 8 8 8 8 8 8 8 8 8 8 7 7 7 7 7 6 6
4 3 2 2 3 2 2 2 2 1 1 1 1 2 1 1 2 3 2 4 4 3 4 10 9 8 8 8 9 9 9 9 9 9 9 9 8 8 7 7 7 6 6
5 4 3 3 3 3 2 1 2 1 0 1 1 1 1 1 2 2 3 3 4 5 5 5 7 8 9 8 9 9 9 10 10 10 10 10 9 9 8 8 7 7 7
5 4 3 4 4 3 3 3 3 3 2 1 2 1 2 3 3 2 3 3 4 4 4 5 5 4 6 11 10 10 10 10 10 11 11 11 11 10 9 9 8 8 8
6 6 5 4 4 3 4 4 3 3 2 2 2 2 2 3 4 3 3 3 3 4 5 6 5 5 5 5 7 12 11 11 11 11 11 11 11 10 11 10 10 9 9
7 6 6 6 4 5 5 5 4 5 3 3 2 2 2 1 1 3 3 3 3 3 4 4 6 6 6 5 5 10 11 10 11 12 12 11 11 11 11 11 11 11 10
8 7 7 7 6 5 4 6 6 4 5 4 3 3 3 2 2 1 2 3 4 4 4 4 5 6 7 6 5 4 9 9 10 11 11 11 11 11 12 12 12 12 11
8 8 8 7 7 6 6 6 5 6 5 5 3 3 3 2 4 3 2 2 2 3 4 4 4 4 5 6 5 6 9 9 9 10 10 11 11 11 12 12 13 13 13
7 9 9 8 8 7 7 6 6 8 6 5 4 4 3 3 3 3 3 3 3 3 3 3 4 4 4 5 6 6 8 8 9 9 9 10 10 11 11 12 13 13 14
7 8 8 8 7 7 7 7 7 7 7 6 6 5 4 4 3 3 3 4 4 3 3 4 4 4 4 4 4 7 8 9 9 9 9 9 9 10 10 11 12 13 13
7 7 9 9 9 9 8 7 7 7 6 7 8 6 4 4 4 4 4 4 4 4 4 4 3 4 3 4 3 7 6 9 9 9 9 9 9 10 10 10 11 11 11
7 8 9 9 9 9 8 8 6 6 6 7 7 7 6 5 5 4 4 4 4 5 4 4 4 4 3 3 3 5 6 8 10 9 10 10 10 10 10 10 10 10 10
8 8 8 9 9 8 8 8 7 6 7 6 5 6 6 5 5 5 5 5 5 5 5 3 3 2 3 4 4 6 6 7 9 9 9 9 10 10 10 10 11 11 11
8 9 9 9 8 8 8 8 8 7 8 7 7 7 7 7 5 5 5 5 5 5 6 5 3 2 3 5 3 5 6 7 7 10 10 9 9 10 10 10 11 11 11
8 8 8 9 8 8 8 8 8 8 8 8 7 7 8 6 7 6 5 6 5 5 6 6 4 4 5 5 5 6 6 6 5 8 10 9 9 9 9 10 10 10 10
8 8 8 8 8 8 7 7 7 8 8 7 7 8 8 7 7 6 6 6 5 5 5 6 6 3 4 4 4 6 6 4 6 5 9 10 9 9 9 9 9 10 10
7 7 6 6 7 7 6 7 7 7 7 7 7 7 7 7 7 7 6 6 6 6 5 6 6 4 4 3 4 5 5 5 6 5 4 5 8 10 10 9 9 9 10
7 6 6 6 5 5 5 6 6 7 7 6 6 6 6 4 4 4 5 4 5 5 5 5 5 5 4 3 4 5 5 4 4 5 4 4 5 5 6 8 8 8 8
6 5 5 5 5 3 2 3 5 5 5 5 5 4 4 4 3 4 4 3 4 5 6 5 5 5 5 5 4 5 5 5 5 2 3 5 4 4 3 3 2 4 5
5 5 4 4 4 2 3 3 3 3 3 3 2 3 3 2 3 3 3 3 3 3 4 6 6 5 5 4 5 6 5 5 5 4 3 5 4 4 4 2 2 3 3
4 4 3 3 3 2 4 4 3 3 2 1 1 1 2 1 1 1 2 2 2 1 2 4 4 5 5 5 5 5 5 5 5 4 4 5 5 4 4 2 2 3 2
4 4 3 3 3 3 4 4 4 3 2 1 1 0 1 0 2 1 2 2 1 1 1 2 1 2 3 4 4 4 4 5 5 4 2 4 4 4 4 3 1 4 3
4 4 4 4 4 4 5 4 3 2 2 2 1 1 3 3 4 2 1 1 1 2 2 1 1 2 3 2 2 4 5 5 4 4 2 3 3 3 3 2 1 1 1
Wind_Direction
128 118 108 107 111 111 130 120 106 106 112 112 103 95 87 85 100 118 123 141 149 155 155 154 156 157 156 153 153 152 153 155 154 155 156 159 158 156 155 154 153 151 151
125 133 139 134 119 114 95 109 119 129 113 100 104 102 98 106 114 128 131 142 152 160 167 167 166 166 165 166 167 165 166 167 166 167 167 167 167 169 168 169 168 167 166
142 159 143 161 128 117 123 127 121 134 142 125 112 112 115 113 119 135 144 149 155 161 167 174 178 180 178 179 180 177 177 178 179 178 178 179 181 182 180 181 180 178 178
172 190 169 158 144 157 148 135 155 135 113 113 114 120 118 133 137 156 163 168 171 162 166 174 183 187 190 191 192 189 186 186 188 188 188 188 190 191 189 191 193 192 191
190 207 188 155 183 175 167 193 123 148 134 128 157 156 151 149 154 167 157 170 173 188 171 164 181 192 199 200 200 199 196 195 195 196 197 197 199 198 196 197 200 201 202
199 216 195 183 204 183 169 163 144 180 160 215 241 138 200 175 194 162 194 179 182 191 195 178 181 189 197 203 207 208 207 203 201 202 204 207 208 207 204 205 207 209 211
202 214 218 184 216 202 191 192 192 182 203 209 233 216 201 191 183 194 213 204 191 197 197 198 207 197 184 196 208 214 214 213 207 206 209 212 213 212 212 214 215 217 219
215 209 216 214 210 210 207 208 213 230 214 210 262 264 228 183 187 185 197 207 207 200 204 204 200 206 224 194 183 202 215 218 215 212 212 214 216 215 216 219 222 223 224
218 226 213 224 217 223 212 213 217 227 234 221 254 291 292 322 323 170 195 205 209 216 223 205 208 207 216 215 198 192 202 212 218 219 217 215 215 216 217 220 223 225 225
220 219 218 218 223 229 221 225 219 230 236 239 217 236 274 321 285 257 205 188 199 216 229 226 213 207 214 217 205 190 189 205 216 224 223 220 218 216 218 223 227 229 229
220 223 219 219 219 226 227 236 231 233 235 246 248 234 234 228 244 256 265 251 222 219 215 223 222 220 216 220 216 195 184 201 212 221 224 226 224 222 222 226 230 233 234
213 219 221 219 221 225 222 224 229 225 236 248 256 249 244 249 254 253 261 256 251 240 226 234 228 220 220 222 219 160 183 202 212 218 223 226 225 225 226 229 233 236 237
213 209 217 218 221 221 222 223 224 236 230 232 238 245 246 254 261 258 265 273 272 251 227 229 223 222 225 221 200 169 195 205 213 218 222 225 226 227 228 232 235 238 238
230 216 215 220 223 221 221 218 228 229 230 233 237 243 251 246 249 249 253 266 273 261 234 235 224 224 238 233 189 198 207 197 210 217 221 225 227 228 229 231 233 235 236
230 223 220 222 223 222 224 221 230 231 231 233 234 228 238 244 239 245 248 247 259 271 264 230 232 212 229 235 186 223 233 193 203 214 221 225 228 230 231 231 231 232 233
230 227 226 226 224 221 219 221 226 225 230 234 236 240 240 241 243 241 241 243 248 262 275 273 253 229 234 248 202 239 240 189 199 212 220 226 229 231 232 232 232 232 232
226 225 224 224 223 222 221 219 225 223 229 233 234 232 236 245 244 241 238 238 238 244 257 266 261 246 238 260 243 246 241 231 212 201 212 221 226 229 232 233 234 234 234
226 226 226 222 220 220 219 220 223 224 228 233 235 238 241 238 236 242 243 244 242 239 250 264 261 243 237 242 243 248 249 239 244 188 198 213 223 228 231 233 233 235 236
223 223 223 223 222 219 217 222 227 229 231 234 236 240 245 244 241 238 239 243 240 235 237 252 256 248 245 240 243 244 248 255 259 208 192 203 213 223 229 232 234 237 239
216 214 217 220 220 218 219 226 226 229 233 235 237 242 248 246 244 246 241 242 245 248 242 247 252 248 246 239 248 253 249 235 250 256 233 217 207 213 222 227 232 236 238
211 207 211 214 216 213 219 224 225 225 229 235 236 240 246 249 261 258 263 254 250 249 245 241 248 254 254 249 252 257 262 266 256 256 260 254 231 227 217 219 228 234 236
209 206 209 207 209 212 171 202 233 230 230 231 234 239 235 226 225 227 251 272 280 266 266 262 254 254 259 263 272 275 278 277 273 271 274 275 268 263 258 253 184 194 217
201 202 204 201 198 173 144 164 199 231 232 243 241 245 249 227 225 232 202 202 234 264 266 270 273 275 276 277 277 274 274 282 287 297 291 279 277 270 265 267 149 175 206
188 184 184 182 177 142 140 151 160 196 202 203 229 242 265 270 283 289 241 233 247 272 258 245 269 285 292 300 285 278 282 272 265 270 277 272 279 280 280 281 153 169 191
163 164 160 152 148 126 120 142 167 178 158 158 178 64 300 258 39 6 255 240 261 280 64 90 32 319 344 341 315 283 273 272 275 273 269 267 280 287 278 263 186 160 181
152 148 134 132 132 123 115 127 168 169 146 149 128 93 54 39 39 21 265 244 262 281 300 298 244 262 273 280 271 278 281 274 278 283 325 283 276 288 280 273 296 278 208